Weather History for Canton, GA

Change the Weather History Date:

Wednesday, October 17, 2012

  Actual Average (KGVL) Record (KGVL)
Temperature  
Mean Temperature 58 °F 61 °F  
Max Temperature 73 °F 71 °F 84 °F (1962)
Min Temperature 44 °F 51 °F 30 °F (1954)
Degree Days  
Heating Degree Days 6 5  
Month to date heating degree days 54  
Since 1 July heating degree days 67  
Cooling Degree Days 0 1  
Month to date cooling degree days 30  
Year to date cooling degree days 1571  
Growing Degree Days 8 (Base 50)    
Moisture  
Dew Point 36 °F    
Average Humidity 50    
Maximum Humidity 87    
Minimum Humidity 13    
Precipitation  
Precipitation 0.00 in 0.12 in 1.99 in (2006)
Month to date precipitation 2.49  
Year to date precipitation 43.42  
Sea Level Pressure  
Sea Level Pressure 29.92 in    
Wind  
Wind Speed 2 mph ()    
Max Wind Speed 9 mph    
Max Gust Speed 18 mph    
Visibility 10.0 miles    
Events      
T = Trace of Precipitation, MM = Missing Value Source: Averaged Metar Reports

Daily Weather History Graph

Daily Weather History Graph

Search for Another Location

Airport:

Trip Planner

Search our weather history database for the weather conditions in past years. The results will help you decide how hot, cold, wet, or windy it might be!

Date:

Astronomy

Oct. 17, 2012 Rise Set
Actual Time 7:45 AM EDT 7:00 PM EDT
Civil Twilight 7:19 AM EDT 7:25 PM EDT
Nautical Twilight 6:50 AM EDT 7:54 PM EDT
Astronomical Twilight 6:21 AM EDT 8:23 PM EDT
Moon 10:10 AM EDT (10/17) 8:43 PM EDT (10/17)
Length of Visible Light 12h 05m
Length of Day
11h 15m
Waxing Crescent, 7% of the Moon is Illuminated
Oct 17
Waxing Crescent
Oct 21
First Quarter
Oct 29
Full
Nov 6
Last Quarter
Nov 13
New

Hourly Weather History & Observations

Time (EDT) Temp. Windchill Dew Point Humidity Pressure Visibility Wind Dir Wind Speed Gust Speed Precip Events Conditions
12:15 AM 50.0 °F - 42.8 °F 76% 29.94 in 10.0 mi North 3.5 mph - N/A   Clear
12:35 AM 50.0 °F - 42.8 °F 76% 29.94 in 10.0 mi Calm Calm - N/A   Clear
12:55 AM 50.0 °F - 42.8 °F 76% 29.94 in 10.0 mi Calm Calm - N/A   Clear
1:15 AM 50.0 °F - 42.8 °F 76% 29.94 in 10.0 mi Calm Calm - N/A   Clear
1:35 AM 48.2 °F - 42.8 °F 82% 29.93 in 10.0 mi Calm Calm - N/A   Clear
1:55 AM 50.0 °F - 42.8 °F 76% 29.94 in 10.0 mi NNE 3.5 mph - N/A   Clear
2:15 AM 50.0 °F - 42.8 °F 76% 29.93 in 10.0 mi Calm Calm - N/A   Clear
2:35 AM 50.0 °F - 41.0 °F 71% 29.94 in 10.0 mi Calm Calm - N/A   Clear
2:55 AM 50.0 °F - 41.0 °F 71% 29.93 in 10.0 mi Calm Calm - N/A   Clear
3:15 AM 46.4 °F - 41.0 °F 81% 29.93 in 10.0 mi Calm Calm - N/A   Clear
3:35 AM 46.4 °F - 42.8 °F 87% 29.93 in 10.0 mi Calm Calm - N/A   Clear
3:55 AM 48.2 °F - 42.8 °F 82% 29.92 in 10.0 mi Calm Calm - N/A   Clear
4:15 AM 46.4 °F - 42.8 °F 87% 29.92 in 10.0 mi Calm Calm - N/A   Clear
4:35 AM 46.4 °F - 42.8 °F 87% 29.93 in 10.0 mi Calm Calm - N/A   Clear
4:55 AM 50.0 °F - 42.8 °F 76% 29.93 in 10.0 mi Calm Calm - N/A   Clear
5:15 AM 50.0 °F - 41.0 °F 71% 29.93 in 10.0 mi SE 3.5 mph - N/A   Clear
5:35 AM 48.2 °F - 42.8 °F 82% 29.93 in 10.0 mi Calm Calm - N/A   Clear
5:55 AM 46.4 °F 45.2 °F 41.0 °F 81% 29.94 in 10.0 mi NW 3.5 mph - N/A   Clear
6:15 AM 46.4 °F - 41.0 °F 81% 29.94 in 10.0 mi Calm Calm - N/A   Clear
6:35 AM 46.4 °F - 41.0 °F 81% 29.94 in 10.0 mi Calm Calm - N/A   Clear
6:55 AM 46.4 °F - 41.0 °F 81% 29.94 in 10.0 mi Calm Calm - N/A   Clear
7:15 AM 46.4 °F - 41.0 °F 81% 29.94 in 10.0 mi Calm Calm - N/A   Clear
7:35 AM 46.4 °F - 41.0 °F 81% 29.95 in 10.0 mi Calm Calm - N/A   Clear
7:55 AM 46.4 °F - 41.0 °F 81% 29.95 in 10.0 mi Calm Calm - N/A   Clear
8:15 AM 44.6 °F - 39.2 °F 81% 29.95 in 7.0 mi Calm Calm - N/A   Clear
8:35 AM 46.4 °F 45.2 °F 42.8 °F 87% 29.96 in 10.0 mi ENE 3.5 mph - N/A   Clear
8:55 AM 46.4 °F - 42.8 °F 87% 29.97 in 10.0 mi Calm Calm - N/A   Clear
9:15 AM 50.0 °F - 41.0 °F 71% 29.98 in 10.0 mi Calm Calm - N/A   Clear
9:35 AM 51.8 °F - 41.0 °F 67% 29.98 in 10.0 mi Calm Calm - N/A   Clear
9:55 AM 55.4 °F - 39.2 °F 54% 29.98 in 10.0 mi ENE 3.5 mph - N/A   Clear
10:15 AM 57.2 °F - 39.2 °F 51% 29.99 in 10.0 mi East 3.5 mph - N/A   Clear
10:35 AM 59.0 °F - 39.2 °F 48% 29.99 in 10.0 mi ESE 4.6 mph - N/A   Clear
10:55 AM 62.6 °F - 39.2 °F 42% 29.99 in 10.0 mi East 4.6 mph - N/A   Clear
11:15 AM 62.6 °F - 37.4 °F 39% 29.99 in 10.0 mi ENE 4.6 mph - N/A   Clear
11:35 AM 64.4 °F - 37.4 °F 37% 29.97 in 10.0 mi ENE 3.5 mph - N/A   Clear
11:55 AM 66.2 °F - 37.4 °F 35% 29.97 in 10.0 mi Calm Calm - N/A   Clear
12:15 PM 68.0 °F - 35.6 °F 30% 29.96 in 10.0 mi ESE 4.6 mph - N/A   Clear
12:35 PM 69.8 °F - 32.0 °F 25% 29.95 in 10.0 mi South 6.9 mph - N/A   Clear
12:55 PM 71.6 °F - 28.4 °F 20% 29.95 in 10.0 mi South 5.8 mph - N/A   Clear
1:15 PM 71.6 °F - 24.8 °F 17% 29.94 in 10.0 mi South 5.8 mph - N/A   Clear
1:35 PM 71.6 °F - 24.8 °F 17% 29.93 in 10.0 mi SSE 8.1 mph - N/A   Clear
1:55 PM 73.4 °F - 21.2 °F 14% 29.92 in 10.0 mi SSW 8.1 mph 18.4 mph N/A   Clear
2:15 PM 71.6 °F - 19.4 °F 14% 29.91 in 10.0 mi SE 6.9 mph - N/A   Clear
2:35 PM 73.4 °F - 21.2 °F 14% 29.89 in 10.0 mi SSW 5.8 mph - N/A   Clear
2:55 PM 73.4 °F - 21.2 °F 14% 29.88 in 10.0 mi South 8.1 mph 16.1 mph N/A   Clear
3:15 PM 73.4 °F - 21.2 °F 14% 29.88 in 10.0 mi South 8.1 mph - N/A   Clear
3:35 PM 73.4 °F - 21.2 °F 14% 29.87 in 10.0 mi South 9.2 mph - N/A   Clear
3:55 PM 73.4 °F - 19.4 °F 13% 29.87 in 10.0 mi South 8.1 mph - N/A   Clear
4:15 PM 73.4 °F - 19.4 °F 13% 29.87 in 10.0 mi ESE 5.8 mph - N/A   Clear
4:35 PM 73.4 °F - 19.4 °F 13% 29.86 in 10.0 mi SE 8.1 mph - N/A   Clear
4:55 PM 73.4 °F - 23.0 °F 15% 29.86 in 10.0 mi South 3.5 mph - N/A   Clear
5:15 PM 73.4 °F - 21.2 °F 14% 29.86 in 10.0 mi South 8.1 mph - N/A   Clear
5:35 PM 73.4 °F - 23.0 °F 15% 29.85 in 10.0 mi SSE 6.9 mph - N/A   Clear
5:55 PM 71.6 °F - 24.8 °F 17% 29.86 in 10.0 mi SSE 4.6 mph - N/A   Clear
6:15 PM 71.6 °F - 28.4 °F 20% 29.86 in 10.0 mi SE 5.8 mph - N/A   Clear
6:35 PM 69.8 °F - 30.2 °F 23% 29.86 in 10.0 mi SE 4.6 mph - N/A   Clear
6:55 PM 69.8 °F - 32.0 °F 25% 29.86 in 10.0 mi SE 4.6 mph - N/A   Clear
7:15 PM 68.0 °F - 33.8 °F 28% 29.86 in 10.0 mi SE 4.6 mph - N/A   Clear
7:55 PM 64.4 °F - 35.6 °F 34% 29.87 in 10.0 mi Calm Calm - N/A   Clear
8:15 PM 64.4 °F - 37.4 °F 37% 29.88 in 10.0 mi East 4.6 mph - N/A   Clear
8:35 PM 62.6 °F - 37.4 °F 39% 29.88 in 10.0 mi East 3.5 mph - N/A   Clear
8:55 PM 62.6 °F - 37.4 °F 39% 29.89 in 10.0 mi Calm Calm - N/A   Clear
9:15 PM 60.8 °F - 39.2 °F 45% 29.89 in 10.0 mi Calm Calm - N/A   Clear
9:35 PM 60.8 °F - 39.2 °F 45% 29.89 in 10.0 mi East 3.5 mph - N/A   Clear
9:55 PM 60.8 °F - 41.0 °F 48% 29.89 in 10.0 mi East 3.5 mph - N/A   Clear
10:15 PM 60.8 °F - 41.0 °F 48% 29.88 in 10.0 mi East 3.5 mph - N/A   Clear
10:35 PM 59.0 °F - 41.0 °F 51% 29.87 in 10.0 mi East 3.5 mph - N/A   Clear
10:55 PM 57.2 °F - 41.0 °F 55% 29.87 in 10.0 mi East 3.5 mph - N/A   Clear
11:15 PM 59.0 °F - 39.2 °F 48% 29.86 in 10.0 mi SE 3.5 mph - N/A   Clear
11:35 PM 59.0 °F - 39.2 °F 48% 29.84 in 10.0 mi ESE 5.8 mph - N/A   Clear
11:55 PM 59.0 °F - 39.2 °F 48% 29.84 in 10.0 mi ESE 4.6 mph - N/A   Clear